www.pogodaiklimat.ru

Погода и климат >> Архив погоды >> Франция >> Дюнкерк


ПОГОДА в Дюнкерке

  • Прогноз погоды в Дюнкерке
  • Монитор погоды в Дюнкерке

АРХИВ ПОГОДЫ в Дюнкерке

Время (UTC), дата Ветер
(напр.,м/с)
 
Видим.   Явления Облачность Т
(С)
Тd
(С)
f
(%)
Тe
(С)
Тes
(С)
Комфортность P
(гПа)
Po
(гПа)
Тmin
(С)
Tmax
(С)
R
(мм)
R24
(мм)
S
(см)
13 16.07 СЗ 2-3
{3}
н/о н/о +19.6 +12.1 62 +22 +22 комфорт 1019.7 1017.8
14 16.07 СЗ 2-3
{3}
н/о н/о +20.0 +11.2 57 +22 +22 комфорт 1019.6 1017.7
15 16.07 СЗ 2-2
{3}
н/о н/о +21.1 +11.4 54 +23 +23 комфорт 1019.1 1017.2
16 16.07 СЗ 2-2
{2}
н/о н/о +20.8 +12.0 57 +24 +24 комфорт 1018.7 1016.8
17 16.07 С 1-2
{2}
н/о н/о +20.2 +12.2 60 +23 +23 комфорт 1018.4 1016.5
18 16.07 С 1-2
{2}
н/о н/о +19.9 +12.6 63 +23 +23 комфорт 1018.3 1016.4 +16.1 +21.1
19 16.07 СЗ 2-2
{2}
н/о н/о +18.9 +14.0 73 +21 +21 комфорт 1018.1 1016.2
20 16.07 С 1-1
{2}
н/о н/о +18.1 +12.8 71 +20 +20 1018.0 1016.1
21 16.07 С 1-1
{1}
25 км 6/0
[Ci fib]
+17.7 +12.8 73 +19 +19 1018.1 1016.2
22 16.07 С 1-1
{1}
н/о н/о +17.8 +13.9 78 +19 +19 1018.0 1016.1
23 16.07 С 1-1
{1}
н/о н/о +17.6 +14.5 82 +19 +19 1017.9 1016.0
00 17.07 СВ 1-1
{2}
н/о н/о +17.2 +13.9 81 +18 +18 1017.8 1015.9
01 17.07 Ю 1-1
{1}
н/о н/о +16.8 +13.7 82 +18 +18 1017.4 1015.5
02 17.07 Ю 2-2
{2}
н/о н/о +14.8 +12.8 88 +15 +15 1017.0 1015.1
03 17.07 Ю 1-2
{2}
н/о н/о +13.8 +12.0 89 +14 +14 1016.8 1014.9
04 17.07 Ю 1-2
{2}
н/о н/о +13.8 +12.0 89 +14 +14 1016.6 1014.7
05 17.07 Ю 1-2
{2}
н/о н/о +14.3 +12.2 87 +15 +15 1016.3 1014.4
06 17.07 Ю 2
{5}
н/о н/о +15.5 +12.4 82 +16 +16 1016.3 1014.4 +13.7 +19.9
07 17.07 Ю 2-2
{2}
н/о н/о +18.1 +12.5 70 +19 +19 1016.5 1014.6
08 17.07 ЮВ 2-2
{2}
н/о н/о +19.6 +12.8 65 +22 +22 комфорт 1016.4 1014.5
09 17.07 ЮВ 1-2
{2}
18 км 8/0
[Cs]
+22.2 +11.3 50 +24 +32 комфорт 1016.2 1014.3
10 17.07 ЮВ 1-2
{3}
н/о н/о +23.8 +11.1 45 +25 +25 комфорт 1015.9 1014.0
11 17.07 СВ 2-3
{3}
н/о н/о +22.5 +14.3 60 +26 +26 жарко 1015.7 1013.8
12 17.07 С 2-3
{3}
н/о н/о +22.1 +15.2 65 +26 +26 душно 1015.3 1013.4
13 17.07 С 2-3
{3}
н/о н/о +22.3 +15.6 66 +26 +26 жарко 1014.8 1012.9
14 17.07 СВ 3-3
{3}
н/о н/о +22.2 +16.0 68 +26 +26 душно 1014.3 1012.4
15 17.07 СВ 2-3
{3}
н/о н/о +22.1 +16.1 69 +26 +26 душно 1013.8 1011.9
16 17.07 СВ 4-3
{6}
н/о н/о +21.7 +16.0 70 +25 +25 комфорт 1013.5 1011.6
17 17.07 С 3-2
{5}
н/о н/о +20.8 +16.2 75 +25 +25 комфорт 1013.1 1011.2
18 17.07 СЗ 5-3
{6}
н/о н/о +19.9 +15.3 75 +22 +22 комфорт 1012.9 1011.0 +15.5 +24.0
19 17.07 З 7-5
{9}
н/о н/о +19.2 +15.1 77 +20 +20 1013.0 1011.1
20 17.07 З 5
{8}
н/о н/о +19.3 +13.0 67 +20 +20 1012.8 1010.9
21 17.07 ЮЗ 3-4
{7}
н/о н/о +19.3 +10.8 58 +21 +21 комфорт 1012.6 1010.7
22 17.07 ЮЗ 2-3
{4}
н/о н/о +18.4 +12.6 69 +19 +19 1012.5 1010.6
23 17.07 ЮЗ 5-4
{8}
н/о н/о +18.0 +12.2 69 +18 +18 1012.4 1010.5
00 18.07 ЮЗ 3-5
{5}
12 км 10/10 480 м
[Sc]
+17.7 +12.4 71 +18 +18 1012.5 1010.6
01 18.07 ЮЗ 3-5
{5}
н/о н/о +17.4 +13.3 77 +17 +17 1012.0 1010.1
02 18.07 ЮЗ 3-4
{6}
н/о н/о +17.1 +13.6 80 +17 +17 1011.5 1009.6
03 18.07 ЮЗ 3-4
{4}
15 км 10/10 480 м
[Sc]
+16.2 +13.9 86 +16 +16 1011.3 1009.4
04 18.07 ЮЗ 4-3
{7}
н/о н/о +15.9 +14.1 89 +15 +15 1011.3 1009.4
05 18.07 ЮЗ 5-3
{7}
н/о н/о +15.9 +14.1 89 +15 +15 1011.0 1009.1
06 18.07 ЮЗ 3
{8}
15 км 10/10 480 м
[Sc]
+16.8 +14.4 86 +17 +17 1010.9 1009.0 +15.6 +20.0
07 18.07 ЮЗ 4-6
{6}
н/о н/о +18.4 +14.5 78 +19 +19 1010.9 1009.0
08 18.07 ЮЗ 4-6
{7}
н/о н/о +18.9 +15.0 78 +20 +20 1011.3 1009.4
09 18.07 ЮЗ 3-5
{6}
15 км 10/10 800 м
[Sc Ac inh]
+19.3 +14.3 73 +21 +21 комфорт 1011.1 1009.2
10 18.07 ЮЗ 3-5
{6}
н/о н/о +21.0 +13.7 63 +24 +24 комфорт 1011.1 1009.2
11 18.07 ЮЗ 4-6
{6}
н/о н/о +20.9 +14.1 65 +24 +24 комфорт 1011.2 1009.3
12 18.07 ЮЗ 4-7
{7}
н/о н/о +19.5 +15.4 77 +21 +21 комфорт 1011.4 1009.5
13 18.07 ЮЗ 5-8
{8}
15 км слаб. морось 10/10 800 м
[Sc Ac inh]
+19.2 +15.5 79 +21 +21 комфорт 1011.7 1009.8 0.0
14 18.07 ЮЗ 4-8
{8}
н/о н/о +19.6 +15.3 76 +22 +22 комфорт 1011.4 1009.5 0.0
15 18.07 ЮЗ 4-7
{8}
н/о н/о +20.1 +14.7 71 +23 +23 комфорт 1011.5 1009.6 0.0
16 18.07 ЮЗ 3-6
{6}
н/о н/о +20.4 +14.7 70 +23 +23 комфорт 1011.5 1009.6 0.0
17 18.07 ЮЗ 4-6
{6}
н/о н/о +20.6 +13.5 64 +23 +23 комфорт 1011.4 1009.5 0.0
18 18.07 ЮЗ 3-5
{7}
н/о н/о +20.1 +13.5 66 +23 +23 комфорт 1011.6 1009.7 +16.8 +21.3 0.0
19 18.07 ЮЗ 3-5
{6}
н/о н/о +19.4 +13.8 70 +21 +21 комфорт 1011.9 1010.0 0.0
20 18.07 ЮЗ 3-4
{5}
н/о н/о +18.5 +14.2 76 +19 +19 1012.3 1010.4
21 18.07 ЮЗ 3-4
{4}
8000 м 10/10 1080 м
[Sc]
+17.6 +13.9 79 +18 +18 1012.5 1010.6 0.0
22 18.07 ЮЗ 3-5
{5}
н/о н/о +17.1 +13.8 81 +17 +17 1012.6 1010.7
23 18.07 ЮЗ 3-4
{5}
н/о н/о +17.1 +14.2 83 +17 +17 1012.7 1010.8
00 19.07 ЮЗ 3-4
{5}
8000 м 10/10 1080 м
[Sc]
+16.4 +14.2 87 +16 +16 1012.9 1011.0
01 19.07 ЮЗ 2-3
{4}
н/о н/о +17.2 +14.5 84 +18 +18 1013.0 1011.1
02 19.07 ЮЗ 2-3
{4}
н/о н/о +17.2 +14.1 82 +18 +18 1013.0 1011.1
03 19.07 З 2-4
{4}
н/о н/о +17.3 +13.8 80 +18 +18 1013.1 1011.2
04 19.07 ЮЗ 2-2
{3}
н/о н/о +16.8 +13.1 79 +17 +17 1013.3 1011.4
05 19.07 Ю 2-2
{3}
н/о н/о +16.2 +13.7 85 +17 +17 1013.3 1011.4
06 19.07 ЮЗ 2
{6}
н/о н/о +17.4 +13.5 78 +18 +18 1013.8 1011.9 +16.0 +20.2
07 19.07 ЮЗ 2-3
{3}
н/о н/о +19.2 +13.4 69 +21 +21 комфорт 1014.1 1012.2
08 19.07 ЮЗ 3-4
{4}
н/о н/о +20.3 +12.8 62 +23 +23 комфорт 1014.1 1012.2
09 19.07 ЮЗ 3-4
{4}
н/о н/о +20.2 +12.7 62 +23 +23 комфорт 1014.1 1012.2
10 19.07 ЮЗ 3-5
{5}
н/о н/о +20.8 +13.2 62 +24 +24 комфорт 1014.0 1012.1
11 19.07 ЮЗ 3-5
{5}
н/о н/о +21.3 +12.4 57 +24 +24 комфорт 1014.0 1012.1
12 19.07 ЮЗ 3-5
{5}
12 км 10/10 1500 м
[Sc]
+21.6 +12.4 56 +24 +24 комфорт 1013.9 1012.0
13 19.07 ЮЗ 3-5
{6}
н/о н/о +22.3 +11.7 51 +25 +25 комфорт 1013.7 1011.8
14 19.07 ЮЗ 3-5
{6}
н/о н/о +22.7 +12.0 51 +25 +25 комфорт 1013.4 1011.5
15 19.07 ЮЗ 3-5
{5}
н/о н/о +23.5 +11.5 47 +25 +25 комфорт 1013.0 1011.1
17 19.07 З 2-5
{5}
н/о н/о +22.1 +15.0 64 +26 +26 душно 1012.6 1010.7
18 19.07 ЮЗ 3-5
{6}
н/о н/о +21.9 +14.3 62 +25 +25 комфорт 1012.4 1010.5 +17.3 +23.6
19 19.07 Ю 2-3
{5}
н/о н/о +20.9 +15.0 69 +25 +25 комфорт 1012.0 1010.1
20 19.07 Ю 2-3
{3}
н/о н/о +20.6 +14.9 70 +24 +24 комфорт 1011.9 1010.0
21 19.07 Ю 2-2
{3}
12 км 10/10 1200 м
[Sc]
+20.1 +14.9 72 +23 +23 комфорт 1011.8 1009.9
22 19.07 Ю 2-2
{2}
н/о н/о +20.2 +15.0 72 +23 +23 комфорт 1011.0 1009.1
23 19.07 ЮВ 2-3
{3}
н/о н/о +19.9 +14.7 72 +23 +23 комфорт 1010.4 1008.5
00 20.07 ЮВ 2-3
{3}
н/о н/о +19.5 +14.3 72 +22 +22 комфорт 1009.8 1007.9
01 20.07 ЮВ 3-3
{4}
н/о н/о +19.9 +14.3 70 +22 +22 комфорт 1009.2 1007.3
02 20.07 Ю 3-4
{4}
н/о н/о +20.0 +14.1 69 +23 +23 комфорт 1008.6 1006.7
03 20.07 ЮЗ 2-3
{7}
н/о н/о +20.0 +16.0 78 +23 +23 комфорт 1008.6 1006.7
05 20.07 Ю 3-4
{4}
н/о н/о +17.3 +16.2 93 +17 +17 1008.6 1006.7 5
06 20.07 Ю 2
{6}
н/о н/о +17.4 +16.4 94 +18 +18 1008.6 1006.7 +17.3 +21.9 10
07 20.07 Ю 2-3
{4}
н/о н/о +17.9 +16.9 94 +18 +18 1008.4 1006.5 0.8
08 20.07 Ю 3-4
{4}
н/о н/о +19.8 +17.6 87 +23 +23 комфорт 1008.7 1006.8
09 20.07 Ю 2-3
{5}
15 км 10/10 800 м
[Sc diur, vesp]
+20.8 +17.8 83 +25 +25 комфорт 1008.8 1006.9 0.8
10 20.07 ЮЗ 4-6
{6}
н/о н/о +22.1 +17.7 76 +27 +27 душно 1009.2 1007.3
11 20.07 ЮЗ 3-6
{7}
н/о н/о +22.1 +17.5 75 +27 +27 душно 1009.5 1007.6
12 20.07 ЮЗ 5-8
{8}
н/о н/о +22.1 +16.8 72 +26 +26 душно 1009.7 1007.8
13 20.07 ЮЗ 5-8
{8}
н/о н/о +22.2 +16.2 69 +26 +26 душно 1010.4 1008.5
14 20.07 ЮЗ 5-9
{9}
н/о н/о +22.4 +15.3 64 +26 +26 жарко 1010.4 1008.5
15 20.07 З 4-8
{10}
20 км 5/5 800 м
[Sc diur, vesp]
+21.9 +14.5 63 +25 +28 комфорт 1010.9 1009.0
16 20.07 ЮЗ 5-9
{9}
н/о н/о +22.1 +14.5 62 +25 +25 комфорт 1011.3 1009.4
17 20.07 ЮЗ 4-9
{9}
н/о н/о +21.5 +13.7 61 +24 +24 комфорт 1011.8 1009.9
18 20.07 ЮЗ 4-8
{9}
н/о н/о +20.8 +14.0 65 +24 +24 комфорт 1012.4 1010.5 +17.4 +22.9
19 20.07 ЮЗ 4-7
{8}
н/о н/о +20.2 +13.9 67 +23 +23 комфорт 1013.0 1011.1
20 20.07 ЮЗ 3-5
{7}
н/о н/о +19.3 +13.9 71 +21 +21 комфорт 1013.8 1011.9
21 20.07 ЮЗ 4-6
{7}
18 км 1/0
[Ci fib]
+18.1 +14.4 79 +18 +18 1014.4 1012.5
22 20.07 ЮЗ 3-6
{6}
н/о н/о +17.7 +14.8 83 +18 +18 1015.3 1013.4
23 20.07 ЮЗ 2-4
{5}
н/о н/о +17.6 +14.9 84 +18 +18 1015.7 1013.8
00 21.07 ЮЗ 2-4
{4}
18 км 1/0
[Ci fib]
+17.7 +15.3 86 +18 +18 1016.2 1014.3
01 21.07 ЮЗ 2-4
{5}
н/о н/о +17.5 +15.3 87 +18 +18 1016.8 1014.9
02 21.07 ЮЗ 2-3
{3}
н/о н/о +16.6 +15.1 91 +17 +17 1017.1 1015.2
03 21.07 ЮЗ 2-4
{4}
н/о н/о +17.4 +14.7 84 +18 +18 1017.6 1015.7
04 21.07 З 2-3
{4}
н/о н/о +17.1 +14.4 84 +17 +17 1018.1 1016.2
05 21.07 ЮЗ 2-2
{3}
н/о н/о +17.2 +14.5 84 +18 +18 1018.9 1017.0
06 21.07 З 2
{7}
н/о н/о +17.5 +14.4 82 +18 +18 1019.6 1017.7 +16.4 +20.8
07 21.07 З 2-3
{4}
н/о н/о +18.2 +14.7 80 +19 +19 1020.4 1018.5
08 21.07 З 3-3
{4}
н/о н/о +18.7 +14.6 77 +20 +20 1020.9 1019.0
09 21.07 З 2-3
{4}
12 км 10/5 1200 м
[Sc Cs]
+18.7 +14.2 75 +20 +24 1021.6 1019.7
10 21.07 СЗ 2-3
{3}
н/о н/о +19.5 +14.1 71 +22 +22 комфорт 1022.0 1020.1
11 21.07 СЗ 2-3
{3}
н/о н/о +20.2 +13.9 67 +23 +23 комфорт 1022.2 1020.3
12 21.07 СЗ 3-3
{3}
12 км 10/5 1200 м
[Sc Cs]
+20.6 +14.3 67 +24 +30 комфорт 1022.5 1020.6
13 21.07 З 3-5
{5}
н/о н/о +20.1 +15.1 73 +23 +23 комфорт 1022.9 1021.0
14 21.07 З 4-5
{6}
н/о н/о +20.7 +13.2 62 +23 +23 комфорт 1022.9 1021.0
15 21.07 З 4-5
{5}
н/о н/о +20.9 +14.3 66 +24 +24 комфорт 1022.6 1020.7
16 21.07 З 3-5
{5}
н/о н/о +21.0 +14.4 66 +24 +24 комфорт 1022.7 1020.8
17 21.07 З 4-5
{5}
н/о н/о +20.9 +14.8 68 +24 +24 комфорт 1022.5 1020.6
18 21.07 ЮЗ 3-4
{5}
н/о н/о +21.0 +10.8 52 +23 +23 комфорт 1022.6 1020.7 +17.5 +21.4
19 21.07 ЮЗ 3-4
{5}
н/о н/о +20.2 +11.4 57 +22 +22 комфорт 1022.9 1021.0
20 21.07 ЮЗ 2-3
{3}
н/о н/о +19.0 +12.3 65 +20 +20 1023.1 1021.2
21 21.07 ЮЗ 2-3
{3}
н/о н/о +18.2 +12.9 71 +19 +19 1023.3 1021.4
22 21.07 ЮЗ 2-3
{3}
н/о н/о +17.7 +12.6 72 +18 +18 1023.3 1021.4
23 21.07 Ю 2-3
{3}
н/о н/о +17.5 +12.2 71 +18 +18 1023.2 1021.3
00 22.07 Ю 2-3
{3}
н/о н/о +16.9 +11.8 72 +17 +17 1023.3 1021.4
01 22.07 ЮЗ 2-2
{3}
н/о н/о +16.3 +11.9 75 +17 +17 1023.1 1021.2
02 22.07 ЮЗ 2-3
{3}
н/о н/о +16.1 +11.5 74 +16 +16 1023.0 1021.1
03 22.07 ЮЗ 2-3
{3}
н/о н/о +15.9 +11.1 73 +16 +16 1022.8 1020.9
04 22.07 ЮЗ 2-3
{3}
н/о н/о +16.0 +11.8 76 +16 +16 1022.9 1021.0
05 22.07 Ю 2-3
{3}
н/о н/о +16.6 +12.9 79 +17 +17 1023.1 1021.2
06 22.07 ЮЗ 3
{7}
15 км 8/0
[Ac und]
+18.0 +13.9 77 +18 +19 1023.2 1021.3 +15.6 +21.2
07 22.07 ЮЗ 3-4
{4}
н/о н/о +19.1 +14.8 76 +21 +21 комфорт 1023.6 1021.7
08 22.07 ЮЗ 3-5
{5}
н/о н/о +20.9 +14.8 68 +24 +24 комфорт 1023.6 1021.7
09 22.07 ЮЗ 4-6
{6}
н/о н/о +22.9 +14.7 60 +27 +27 душно 1023.9 1022.0
10 22.07 З 3-5
{6}
н/о н/о +22.6 +16.6 69 +27 +27 душно 1023.7 1021.8
11 22.07 З 3-5
{5}
н/о н/о +22.7 +16.9 70 +27 +27 душно 1023.8 1021.9
12 22.07 З 3-5
{7}
н/о н/о +23.4 +16.7 66 +28 +28 душно 1023.8 1021.9
13 22.07 З 3-5
{6}
н/о н/о +22.9 +16.9 69 +28 +28 душно 1023.6 1021.7
14 22.07 З 3-5
{6}
н/о н/о +23.1 +16.9 68 +28 +28 душно 1023.2 1021.3
15 22.07 З 3-5
{5}
н/о н/о +22.5 +16.8 70 +27 +27 душно 1023.0 1021.1
16 22.07 З 3-4
{5}
н/о н/о +22.4 +16.9 71 +27 +27 душно 1022.5 1020.6
17 22.07 З 3-5
{5}
н/о н/о +22.7 +16.7 69 +27 +27 душно 1022.3 1020.4
18 22.07 З 3-4
{5}
н/о н/о +22.2 +16.2 69 +26 +26 душно 1022.3 1020.4 +18.0 +25.6
20 22.07 З 1-1
{3}
н/о н/о +21.3 +16.5 74 +25 +25 комфорт 1022.4 1020.5
21 22.07 Ю 1-2
{2}
н/о н/о +20.9 +16.5 76 +26 +26 душно 1022.3 1020.4
22 22.07 ЮЗ 1-2
{2}
н/о н/о +20.9 +14.8 68 +25 +25 комфорт 1022.2 1020.3
23 22.07 Ю 1-1
{2}
н/о н/о +20.2 +14.3 69 +24 +24 комфорт 1022.1 1020.2
00 23.07 Ю 1-1
{1}
12 км 1/1 600 м
[Sc]
+19.8 +14.4 71 +23 +23 комфорт 1022.0 1020.1
01 23.07 Ю 1-1
{1}
н/о н/о +18.9 +14.8 77 +21 +21 комфорт 1022.0 1020.1
02 23.07 Ю 1-1
{1}
н/о н/о +18.5 +14.8 79 +20 +20 1021.8 1019.9
10 23.07 СВ 1-2
{2}
н/о н/о +23.7 +18.3 72 +28 +28 душно 1019.8 1017.9
11 23.07 СВ 2-2
{3}
н/о н/о +26.8 +18.6 61 +32 +32 очень
душно
1019.0 1017.2

 

Местоположение метеостанции Дюнкерк (Франция): широта 51.05 долгота 2.33 высота над уровнем моря 17 м.

В архиве по умолчанию представлена погода в Дюнкерке за последнюю неделю. Архивные данные за месяц целиком и за предыдущие месяцы, начиная с января 2011 года, Вы можете получить, выбрав интересующий диапазон дат из раскрывающегося списка и нажав кнопку "Ввод!".


*Определитесь, кто Вы:
робот инопланетянин человек

Внимание! Время в таблицах - всемирное. Для получения местного времени необходимо прибавить поправку, которая равна 1 ч.

Смотрите также архив погоды в соседних городах и на ближайших метеорологических станциях:

Погода в Коксейде (Бельгия) (23 км)
Погода в Остенде (Бельгия) (41 км)
Погода в Бейтеме (Бельгия) (58 км)
Погода в Булонь-сюр-Мере (Франция) (62 км)
Погода в Зебрюгге (Бельгия) (68 км)
Погода в Заливе Лангдон (Великобритания) (69 км)
Погода в Кент (Великобритания) (75 км)
Погода в Лилле (Франция) (76 км)
Погода в Ле-Туке-Пари-Плаже (Франция) (77 км)
Погода на Отмели Vlakte Van Raan (Нидерланды) (81 км)

Пояснения к столбцам:

Ветер - указаны скорость ветра в м/с - средняя за 10 мин, порывы в срок и между сроками (в фигурных скобках) и направление, откуда дует ветер: С - северный, СВ - северо-восточный, В - восточный, ЮВ - юго-восточный, Ю - южный, ЮЗ - юго-западный, З - западный, СЗ - северо-западный.
Видимость - горизонтальная дальность видимости в метрах или километрах. При видимости от 1 до 10 км при отсутствии осадков обычно наблюдается дымка, при ухудшении видимости до 1 км и менее - туман. В сухую погоду видимость может ухудшаться дымом, пылью или мглою.
Явления - указаны атмосферные явления, наблюдавшиеся в срок или в последний час перед сроком; фигурными скобками обозначены явления, наблюдавшиеся между сроками (за 1-3 часа до срока); квадратными скобками обозначены град или гололедные отложения с указанием их диаметра в мм.
Облачность - указаны через наклонную черту общая и нижняя облачность в баллах и высота нижней границы облаков в метрах; квадратными скобками обозначены формы облаков: Ci - перистые, Cs - перисто-слоистые, Cc - перисто-кучевые, Ac - высококучевые, As - высокослоистые, Sc - слоисто-кучевые, Ns - слоисто-дождевые, Cu - кучевые, Cb - кучево-дождевые. Подробнее классификацию облаков см. в Атласе облаков (PDF).
T - Температура воздуха - температура, измеренная на высоте 2 м над землей.
Td - Температура точки росы - температура, при понижении до которой содержащийся в воздухе водяной пар достигнет насыщения.
f - Относительная влажность воздуха - влажноcть воздуха, измеренная на высоте 2 м над землей.
Te - Эффективная температура - температура, которую ощущает одетый по сезону человек в тени. Характеристика душности погоды. При расчете учитывается влияние влажности воздуха и скорости ветра на теплоощущения человека.
Tes - Эффективная температура на солнце - температура, которую ощущает человек, с поправкой на солнечный нагрев. Характеристика знойности погоды. Зависит от высоты солнца над горизонтом, облачности и скорости ветра. Ночью, в пасмурную погоду, а также при ветре 12 м/с и более поправка равна нулю.
P - Атмосферное давление - приведенное к уровню моря атмосферное давление.
Po - Атмосферное давление - измеренное на уровне метеостанции атмосферное давление.
Tmin - Минимальная температура - минимум температуры воздуха на высоте 2 м над землей.
Tmax - Максимальная температура - максимум температуры воздуха на высоте 2 м над землей.
R - Количество осадков - Количество выпавших осадков за период времени, мм. При наведении курсора мыши на число - период времени, за который выпало указанное количество осадков.
R24 - Количество осадков - Количество выпавших осадков за 24 часа, мм.
S - Снежный покров - Высота снежного покрова, см. При наведении курсора мыши на число - состояние снежного покрова и степень покрытия местности в баллах.